DHK5732 YMHB-YMML

Flight info

Callsign DHK5732
Flight time N/A
Altitude 36000
Route TASUM H111 LT H215 RAZZI W687 ML
Aircraft A332/H-SDE3GHIJ2J3J5M1RVWXY/LB2D1

Departure

Time 2026-04-25 05:34
Airport Hobart International Airport (YMHB)

Arrival

Time N/A
Airport Melbourne Airport (YMML)
Time Latitude Longitude Altitude Speed Heading
2026-04-25 05:02 -42.83907 147.50966 40 ft 0 kts 315°
2026-04-25 05:26 -42.83899 147.50955 39 ft 3 kts 315°
2026-04-25 05:26 -42.83869 147.50932 38 ft 7 kts 351°
2026-04-25 05:27 -42.83808 147.50984 38 ft 13 kts 49°
2026-04-25 05:27 -42.83828 147.51100 38 ft 14 kts 138°
2026-04-25 05:27 -42.83852 147.51213 37 ft 14 kts 48°
2026-04-25 05:27 -42.83831 147.51242 36 ft 0 kts 44°
2026-04-25 05:29 -42.83826 147.51248 36 ft 2 kts 44°
2026-04-25 05:30 -42.83804 147.51277 35 ft 6 kts 44°
2026-04-25 05:30 -42.83765 147.51344 35 ft 10 kts 72°
2026-04-25 05:30 -42.83804 147.51434 35 ft 12 kts 136°
2026-04-25 05:30 -42.83887 147.51546 36 ft 19 kts 134°
2026-04-25 05:31 -42.83995 147.51697 38 ft 24 kts 134°
2026-04-25 05:31 -42.84133 147.51881 39 ft 30 kts 136°
2026-04-25 05:31 -42.84295 147.52094 41 ft 34 kts 136°
2026-04-25 05:31 -42.84473 147.52304 41 ft 22 kts 158°
2026-04-25 05:32 -42.84568 147.52354 42 ft 7 kts 142°
2026-04-25 05:32 -42.84576 147.52374 42 ft 0 kts 89°
2026-04-25 05:33 -42.84569 147.52406 42 ft 7 kts 64°
2026-04-25 05:33 -42.84511 147.52394 41 ft 13 kts 318°
2026-04-25 05:33 -42.84336 147.52158 41 ft 73 kts 315°
2026-04-25 05:34 -42.83765 147.51381 36 ft 155 kts 315°
2026-04-25 05:34 -42.82894 147.50191 532 ft 186 kts 314°
2026-04-25 05:34 -42.81987 147.48961 1630 ft 188 kts 314°
2026-04-25 05:34 -42.81076 147.47745 2769 ft 190 kts 314°
2026-04-25 05:35 -42.80126 147.46468 3660 ft 195 kts 313°
2026-04-25 05:35 -42.79177 147.45117 4289 ft 202 kts 311°
2026-04-25 05:35 -42.78190 147.43690 4834 ft 217 kts 313°
2026-04-25 05:35 -42.77032 147.42070 4985 ft 254 kts 314°
2026-04-25 05:36 -42.75768 147.40353 5013 ft 252 kts 314°
2026-04-25 05:36 -42.74517 147.38673 5045 ft 250 kts 314°
2026-04-25 05:36 -42.73295 147.37018 5098 ft 249 kts 314°
2026-04-25 05:36 -42.72053 147.35336 5284 ft 246 kts 313°
2026-04-25 05:37 -42.70816 147.33685 5807 ft 250 kts 315°
2026-04-25 05:37 -42.69556 147.32019 6342 ft 253 kts 315°
2026-04-25 05:37 -42.68283 147.30328 6923 ft 256 kts 315°
2026-04-25 05:37 -42.66996 147.28657 7530 ft 259 kts 316°